DW2363 Weather Reports


Display with metric or nautical units.
time (UTC)temp
F
wind
direction
speed
MPH
gust
MPH
rain 1hr
in
rain 24hr
in
rain mn
in
humidity
%
barometer
mb
20260903190754 66 185 7.0 11.0 0.00 0.00 0.00 83 1014.9
20260903190254 66 171 7.0 11.0 0.00 0.00 0.00 83 1014.9
20260903185755 66 153 7.0 11.0 0.00 0.00 0.00 83 1015.0
20260903185255 66 151 7.0 11.0 0.00 0.00 0.00 83 1015.0
20260903184754 66 140 6.0 11.0 0.00 0.00 0.00 84 1015.0
20260903184254 65 169 6.0 11.0 0.00 0.00 0.00 85 1015.1
20260903183754 65 187 6.0 11.0 0.00 0.00 0.00 85 1015.0
20260903183254 65 155 6.0 13.0 0.00 0.00 0.00 85 1015.1
20260903182755 65 142 6.0 13.0 0.00 0.00 0.00 84 1015.0
20260903182254 65 135 5.0 10.0 0.00 0.00 0.00 86 1015.1
20260903181754 65 171 5.0 10.0 0.00 0.00 0.00 86 1015.1
20260903181258 65 146 5.0 10.0 0.00 0.00 0.00 86 1015.2
20260903181254 65 151 5.0 10.0 0.00 0.00 0.00 85 1015.2
20260903180254 64 148 5.0 10.0 0.00 0.00 0.00 85 1015.3
20260903175755 65 161 5.0 10.0 0.00 0.00 0.00 85 1015.2
20260903175255 65 92 5.0 11.0 0.00 0.00 0.00 86 1015.3
20260903174754 65 140 6.0 11.0 0.00 0.00 0.00 85 1015.3
20260903174255 64 138 5.0 11.0 0.00 0.00 0.00 87 1015.2
20260903173754 64 132 4.0 11.0 0.00 0.00 0.00 89 1015.1
20260903173254 63 138 5.0 11.0 0.00 0.00 0.00 88 1015.1
20260903172754 63 153 5.0 11.0 0.00 0.00 0.00 88 1015.1
20260903172254 63 126 6.0 12.0 0.00 0.00 0.00 88 1015.1
20260903171754 63 150 7.0 12.0 0.00 0.00 0.00 89 1015.1
20260903171252 63 144 7.0 11.0 0.00 0.00 0.00 89 1015.1
20260903170753 62 122 6.0 11.0 0.00 0.00 0.00 89 1015.1
20260903170359 62 107 7.0 12.0 0.00 0.00 0.00 89 1015.0
20260903170255 63 94 6.0 12.0 0.00 0.00 0.00 89 1015.1
20260903170251 62 142 5.0 11.0 0.00 0.00 0.00 90 1015.0
20260903164750 63 109 7.0 10.0 0.00 0.00 0.00 88 1014.9
20260903164250 63 99 7.0 10.0 0.00 0.00 0.00 89 1014.9
20260903163754 63 120 6.0 10.0 0.00 0.00 0.00 88 1014.9
20260903163750 63 131 7.0 10.0 0.00 0.00 0.00 88 1014.9
20260903162750 64 119 5.0 9.0 0.00 0.00 0.00 89 1014.9
20260903162248 63 113 5.0 9.0 0.00 0.00 0.00 90 1014.9
20260903161752 62 116 4.0 10.0 0.00 0.00 0.00 92 1014.9
20260903161748 63 134 5.0 10.0 0.00 0.00 0.00 92 1014.9
20260903160746 62 115 1.0 8.0 0.00 0.00 0.00 93 1014.9
20260903160246 62 107 0.0 6.0 0.00 0.00 0.00 94 1014.8
20260903155746 62 112 1.0 7.0 0.00 0.00 0.00 94 1014.8
20260903155246 62 121 2.0 7.0 0.00 0.00 0.00 95 1014.8
20260903154746 62 92 1.0 7.0 0.00 0.00 0.00 95 1014.6
20260903154248 61 109 0.0 0.0 0.00 0.00 0.00 96 1014.8
20260903153746 61 82 0.0 1.0 0.00 0.00 0.00 96 1014.8
20260903153246 61 98 0.0 1.0 0.00 0.00 0.00 96 1014.9
20260903152747 60 73 0.0 0.0 0.00 0.00 0.00 97 1014.8
20260903152249 60 42 0.0 0.0 0.00 0.00 0.00 97 1014.6
20260903152245 60 63 0.0 0.0 0.00 0.00 0.00 97 1014.8
20260903151851 59 47 0.0 0.0 0.00 0.00 0.00 97 1014.8
20260903150744 59 54 0.0 6.0 0.00 0.00 0.00 97 1014.8
20260903150244 59 53 0.0 6.0 0.00 0.00 0.00 96 1014.6
20260903145744 59 47 0.0 8.0 0.00 0.00 0.00 96 1014.6
20260903145244 58 40 2.0 8.0 0.00 0.00 0.00 96 1014.8
20260903144743 58 39 5.0 7.0 0.00 0.00 0.00 96 1014.5
20260903144243 58 31 6.0 9.0 0.00 0.00 0.00 96 1014.5
20260903143744 58 355 6.0 11.0 0.00 0.00 0.00 96 1014.4
20260903143244 58 32 7.0 11.0 0.00 0.00 0.00 96 1014.4
20260903142744 58 28 8.0 11.0 0.00 0.00 0.00 96 1014.4
20260903142244 58 46 7.0 11.0 0.00 0.00 0.00 96 1014.3
20260903141744 58 42 5.0 9.0 0.00 0.00 0.00 96 1014.3
20260903141244 58 37 6.0 9.0 0.00 0.00 0.00 96 1014.3
20260903140744 58 21 6.0 10.0 0.00 0.00 0.00 96 1014.2
20260903140243 58 38 6.0 10.0 0.00 0.00 0.00 96 1014.1
20260903135744 58 29 6.0 10.0 0.00 0.00 0.00 95 1014.2
20260903135244 58 24 5.0 8.0 0.00 0.00 0.00 95 1014.1
20260903134744 58 22 6.0 8.0 0.00 0.00 0.00 95 1014.1
20260903134244 58 14 6.0 8.0 0.00 0.00 0.00 95 1014.1
20260903133748 58 38 6.0 9.0 0.00 0.00 0.00 94 1014.1
20260903133744 58 17 5.0 8.0 0.00 0.00 0.00 95 1014.1
20260903132744 58 36 6.0 9.0 0.00 0.00 0.00 94 1014.1
20260903132244 58 24 6.0 9.0 0.00 0.00 0.00 94 1014.2
20260903131744 58 32 7.0 9.0 0.00 0.00 0.00 93 1014.1
20260903131244 58 30 5.0 9.0 0.00 0.00 0.00 93 1014.2
20260903130743 58 22 4.0 8.0 0.00 0.00 0.00 92 1014.2
20260903130242 58 28 3.0 5.0 0.00 0.00 0.00 91 1014.1
20260903125741 59 37 3.0 5.0 0.00 0.00 0.00 89 1014.1
20260903125242 59 23 2.0 5.0 0.00 0.00 0.00 86 1014.1
20260903124748 61 44 1.0 3.0 0.00 0.00 0.00 79 1014.1
20260903124743 60 38 1.0 4.0 0.00 0.00 0.00 84 1014.1
20260903123742 60 57 1.0 3.0 0.00 0.00 0.00 75 1014.1
20260903123242 60 24 1.0 3.0 0.00 0.00 0.00 85 1014.1
20260903122742 60 25 2.0 4.0 0.00 0.00 0.00 87 1014.1
20260903122242 60 32 3.0 5.0 0.00 0.00 0.00 85 1014.1
20260903121742 61 33 2.0 4.0 0.00 0.00 0.00 83 1014.1
20260903121242 61 34 1.0 4.0 0.00 0.00 0.00 77 1014.0
20260903120743 61 57 1.0 4.0 0.00 0.00 0.00 79 1014.1
20260903120349 61 40 1.0 3.0 0.00 0.00 0.00 79 1014.2
20260903120246 61 41 2.0 3.0 0.00 0.00 0.00 80 1014.2
20260903120242 61 45 2.0 4.0 0.00 0.00 0.00 80 1014.2
20260903114746 62 37 1.0 4.0 0.00 0.00 0.00 73 1014.2
20260903114742 62 40 1.0 4.0 0.00 0.00 0.00 76 1014.2
20260903113742 63 43 1.0 3.0 0.00 0.00 0.00 69 1014.2
20260903113242 64 55 0.0 3.0 0.00 0.00 0.00 67 1014.3
20260903112742 64 94 0.0 3.0 0.00 0.00 0.00 59 1014.3
20260903112242 64 94 0.0 3.0 0.00 0.00 0.00 59 1014.3
20260903111742 64 94 1.0 6.0 0.00 0.00 0.00 57 1014.2
20260903111239 64 94 2.0 6.0 0.00 0.00 0.00 54 1014.3
20260903110745 64 97 2.0 6.0 0.00 0.00 0.00 54 1014.4
20260903110739 64 97 2.0 6.0 0.00 0.00 0.00 53 1014.3
20260903105746 63 87 0.0 3.0 0.00 0.00 0.00 58 1014.4
20260903105740 63 90 1.0 6.0 0.00 0.00 0.00 57 1014.4
20260903104738 63 87 1.0 3.0 0.00 0.00 0.00 58 1014.3
20260903104243 63 57 0.0 2.0 0.00 0.00 0.00 61 1014.5
20260903104238 63 88 0.0 3.0 0.00 0.00 0.00 59 1014.5
20260903103238 63 57 0.0 0.0 0.00 0.00 0.00 64 1014.5
20260903102737 63 57 0.0 0.0 0.00 0.00 0.00 61 1014.5
20260903102244 64 144 0.0 0.0 0.00 0.00 0.00 56 1014.5
20260903102237 63 19 0.0 0.0 0.00 0.00 0.00 63 1014.5
20260903101737 64 19 0.0 0.0 0.00 0.00 0.00 58 1014.5
20260903100737 64 144 0.0 0.0 0.00 0.00 0.00 55 1014.6
20260903100236 64 144 0.0 0.0 0.00 0.00 0.00 55 1014.5
20260903095735 64 144 0.0 0.0 0.00 0.00 0.00 54 1014.6
20260903095236 64 144 0.0 0.0 0.00 0.00 0.00 53 1014.6
20260903094736 65 144 0.0 2.0 0.00 0.00 0.00 54 1014.6
20260903094344 65 135 3.0 5.0 0.00 0.00 0.00 55 1014.9
20260903094237 65 144 1.0 2.0 0.00 0.00 0.00 55 1014.8
20260903093741 65 142 2.0 4.0 0.00 0.00 0.00 55 1014.8
20260903093736 65 143 1.0 2.0 0.00 0.00 0.00 56 1014.8
20260903092235 65 129 3.0 5.0 0.00 0.00 0.00 55 1015.0
20260903091735 65 130 3.0 4.0 0.00 0.00 0.00 55 1015.1
20260903091234 64 128 2.0 4.0 0.00 0.00 0.00 56 1015.1
20260903090733 64 123 1.0 3.0 0.00 0.00 0.00 56 1015.2
20260903090233 64 113 0.0 3.0 0.00 0.00 0.00 56 1015.2
20260903085733 64 84 1.0 3.0 0.00 0.00 0.00 56 1015.3
20260903085233 64 84 2.0 4.0 0.00 0.00 0.00 57 1015.3
20260903084737 65 107 4.0 6.0 0.00 0.00 0.00 56 1015.4
20260903084733 64 101 3.0 6.0 0.00 0.00 0.00 57 1015.3
20260903083739 65 126 5.0 7.0 0.00 0.00 0.00 56 1015.4
20260903083735 65 121 4.0 6.0 0.00 0.00 0.00 55 1015.3
20260903083342 65 123 5.0 7.0 0.00 0.00 0.00 56 1015.4
20260903082751 65 123 5.0 7.0 0.00 0.00 0.00 56 1015.4
20260903082420 65 134 4.0 5.0 0.00 0.00 0.00 56 1015.5
20260903082238 65 122 4.0 7.0 0.00 0.00 0.00 56 1015.4
20260903081231 65 130 3.0 5.0 0.00 0.00 0.00 55 1015.5
20260903080731 65 130 2.0 4.0 0.00 0.00 0.00 55 1015.6
20260903080236 65 281 2.0 4.0 0.00 0.00 0.00 54 1015.6
20260903080231 65 216 2.0 3.0 0.00 0.00 0.00 55 1015.5
20260903075229 66 291 3.0 5.0 0.00 0.00 0.00 55 1015.5
20260903074734 66 194 4.0 6.0 0.00 0.00 0.00 53 1015.5
20260903074730 66 316 4.0 6.0 0.00 0.00 0.00 54 1015.6
20260903073728 66 167 4.0 6.0 0.00 0.00 0.00 54 1015.5
20260903073228 66 121 3.0 5.0 0.00 0.00 0.00 54 1015.5
20260903072733 66 134 3.0 4.0 0.00 0.00 0.00 54 1015.6
20260903072728 66 120 3.0 4.0 0.00 0.00 0.00 53 1015.6
20260903071729 66 134 3.0 5.0 0.00 0.00 0.00 55 1015.6
20260903071229 66 134 3.0 5.0 0.00 0.00 0.00 55 1015.6
20260903070728 66 130 2.0 3.0 0.00 0.00 0.00 55 1015.6
20260903070228 66 120 1.0 3.0 0.00 0.00 0.00 53 1015.6
20260903065729 67 117 0.0 3.0 0.00 0.00 0.00 51 1015.6
20260903065229 67 114 0.0 1.0 0.00 0.00 0.00 51 1015.6
20260903064729 67 114 0.0 1.0 0.00 0.00 0.00 50 1015.6
20260903064229 67 117 0.0 2.0 0.00 0.00 0.00 49 1015.5
20260903063733 67 203 0.0 0.0 0.00 0.00 0.00 49 1015.6
20260903063729 67 117 0.0 2.0 0.00 0.00 0.00 49 1015.6
20260903062728 67 203 0.0 0.0 0.00 0.00 0.00 49 1015.5
20260903062228 68 203 0.0 0.0 0.00 0.00 0.00 52 1015.5
20260903061728 68 203 0.0 0.0 0.00 0.00 0.00 52 1015.4
20260903061233 68 203 0.0 0.0 0.00 0.00 0.00 49 1015.5
20260903061228 68 203 0.0 0.0 0.00 0.00 0.00 51 1015.5
20260903060232 68 203 0.0 1.0 0.00 0.00 0.00 48 1015.5
20260903060228 68 203 0.0 0.0 0.00 0.00 0.00 50 1015.5
20260903055835 68 203 0.0 1.0 0.00 0.00 0.00 46 1015.5
20260903055335 69 284 0.0 0.0 0.00 0.00 0.00 47 1015.5
20260903054229 69 284 0.0 0.0 0.00 0.00 0.00 46 1015.5
20260903054218 69 284 0.0 2.0 0.00 0.00 0.00 42 1015.5
20260903054107 69 284 0.0 0.0 0.00 0.00 0.00 43 1015.5
20260903053944 69 284 0.0 2.0 0.00 0.00 0.00 43 1015.6
20260903053836 69 284 0.0 0.0 0.00 0.00 0.00 45 1015.4
20260903053553 69 284 0.0 0.0 0.00 0.00 0.00 43 1015.5
20260903051227 69 284 1.0 3.0 0.00 0.00 0.00 43 1015.5
20260903050729 69 284 3.0 6.0 0.00 0.00 0.00 44 1015.6
20260903050228 68 281 4.0 11.0 0.00 0.00 0.00 46 1015.6
20260903045736 68 278 9.0 11.0 0.00 0.00 0.00 48 1015.6
20260903045731 68 275 6.0 11.0 0.00 0.00 0.00 46 1015.6
20260903045727 68 272 8.0 11.0 0.00 0.00 0.00 47 1015.6
20260903045229 68 272 8.0 11.0 0.00 0.00 0.00 47 1015.6
20260903044229 68 269 9.0 10.0 0.00 0.00 0.00 46 1015.6
20260903044224 68 275 9.0 10.0 0.00 0.00 0.00 47 1015.6
20260903043832 68 273 9.0 12.0 0.00 0.00 0.00 47 1015.5
20260903042723 68 270 9.0 12.0 0.00 0.00 0.00 48 1015.5
20260903042226 68 265 8.0 12.0 0.00 0.00 0.00 48 1015.5
20260903041832 67 274 11.0 15.0 0.00 0.00 0.00 50 1015.5
20260903041728 67 267 10.0 14.0 0.00 0.00 0.00 49 1015.5
20260903041724 67 263 9.0 12.0 0.00 0.00 0.00 47 1015.5
20260903040831 67 263 12.0 16.0 0.00 0.00 0.00 50 1015.4
20260903035723 67 276 12.0 17.0 0.00 0.00 0.00 51 1015.4
20260903035227 67 286 11.0 14.0 0.00 0.00 0.00 50 1015.2
20260903035223 67 292 11.0 17.0 0.00 0.00 0.00 50 1015.3
20260903034831 67 282 10.0 13.0 0.00 0.00 0.00 48 1015.2
20260903034327 67 286 10.0 14.0 0.00 0.00 0.00 49 1015.2
20260903033222 67 270 9.0 12.0 0.00 0.00 0.00 48 1015.2
20260903032721 67 282 8.0 12.0 0.00 0.00 0.00 47 1015.1
20260903032223 68 288 6.0 10.0 0.00 0.00 0.00 47 1015.1
20260903031722 69 268 4.0 7.0 0.00 0.00 0.00 46 1015.1
20260903031222 69 274 3.0 6.0 0.00 0.00 0.00 46 1015.1
20260903030726 69 257 4.0 7.0 0.00 0.00 0.00 46 1015.0
20260903030722 69 250 3.0 7.0 0.00 0.00 0.00 47 1015.1
20260903030328 70 202 2.0 5.0 0.00 0.00 0.00 46 1015.0
20260903025727 70 257 2.0 5.0 0.00 0.00 0.00 45 1015.1
20260903025723 69 275 3.0 7.0 0.00 0.00 0.00 45 1015.1
20260903025232 70 202 2.0 5.0 0.00 0.00 0.00 46 1015.0
20260903024219 70 242 3.0 6.0 0.00 0.00 0.00 44 1015.0
20260903023720 70 247 4.0 7.0 0.00 0.00 0.00 45 1015.0
20260903023220 70 254 4.0 8.0 0.00 0.00 0.00 43 1015.0
20260903022720 70 273 4.0 8.0 0.00 0.00 0.00 41 1015.0
20260903022226 70 266 5.0 10.0 0.00 0.00 0.00 45 1015.0
20260903022220 70 250 5.0 8.0 0.00 0.00 0.00 43 1015.0
20260903021220 70 291 5.0 10.0 0.00 0.00 0.00 46 1015.0
20260903020717 71 277 4.0 6.0 0.00 0.00 0.00 45 1015.0
20260903020224 71 282 7.0 11.0 0.00 0.00 0.00 47 1015.0
20260903020217 71 288 5.0 11.0 0.00 0.00 0.00 45 1015.0
20260903015218 71 296 8.0 13.0 0.00 0.00 0.00 47 1014.9
20260903014718 71 287 7.0 13.0 0.00 0.00 0.00 47 1014.9
20260903014219 71 294 7.0 13.0 0.00 0.00 0.00 47 1014.9
20260903013723 72 321 6.0 12.0 0.00 0.00 0.00 49 1015.0
20260903013718 72 279 7.0 12.0 0.00 0.00 0.00 48 1015.0
20260903012715 72 266 6.0 12.0 0.00 0.00 0.00 51 1015.0
20260903012306 72 307 7.0 12.0 0.00 0.00 0.00 52 1015.1
20260903011715 72 280 7.0 12.0 0.00 0.00 0.00 52 1015.1
20260903011215 72 271 6.0 12.0 0.00 0.00 0.00 52 1015.1
20260903010722 72 260 4.0 10.0 0.00 0.00 0.00 54 1015.1
20260903010716 72 302 6.0 12.0 0.00 0.00 0.00 53 1015.1
20260903005716 72 216 4.0 8.0 0.00 0.00 0.00 56 1015.2
20260903005213 73 234 4.0 9.0 0.00 0.00 0.00 56 1015.2
20260903004717 73 259 5.0 9.0 0.00 0.00 0.00 56 1015.0
20260903004713 73 212 5.0 9.0 0.00 0.00 0.00 57 1015.2
20260903004322 73 273 4.0 9.0 0.00 0.00 0.00 56 1015.2
20260903003214 73 251 3.0 7.0 0.00 0.00 0.00 58 1015.2
20260903002713 72 268 2.0 5.0 0.00 0.00 0.00 57 1015.2
20260903002215 72 259 3.0 7.0 0.00 0.00 0.00 60 1015.1
20260903001714 71 270 3.0 7.0 0.00 0.00 0.00 61 1015.1
20260903001213 71 231 4.0 8.0 0.00 0.00 0.00 56 1015.1
20260903000713 71 231 4.0 8.0 0.00 0.00 0.00 59 1015.2
20260903000218 72 230 4.0 9.0 0.00 0.00 0.00 52 1015.2
20260903000213 72 237 4.0 9.0 0.00 0.00 0.00 52 1015.2
20260902235727 72 230 4.0 9.0 0.00 0.00 0.00 52 1015.2
20260902235213 71 215 4.0 7.0 0.00 0.00 0.00 46 1015.2
20260902234713 71 223 4.0 7.0 0.00 0.00 0.00 54 1015.3
20260902234213 71 229 5.0 9.0 0.00 0.00 0.00 55 1015.3
20260902233712 70 212 5.0 9.0 0.00 0.00 0.00 61 1015.3
20260902233211 70 229 5.0 9.0 0.00 0.00 0.00 56 1015.3
20260902232710 70 204 5.0 9.0 0.00 0.00 0.00 59 1015.3
20260902232213 70 216 6.0 10.0 0.00 0.00 0.00 66 1015.4
20260902232209 70 195 5.0 10.0 0.00 0.00 0.00 57 1015.3
20260902231213 71 211 5.0 10.0 0.00 0.00 0.00 69 1015.5
20260902231209 70 198 6.0 10.0 0.00 0.00 0.00 68 1015.4
20260902230213 71 190 6.0 9.0 0.00 0.00 0.00 68 1015.5
20260902230209 71 198 5.0 8.0 0.00 0.00 0.00 67 1015.5
20260902225209 72 171 6.0 9.0 0.00 0.00 0.00 67 1015.5
20260902224710 71 173 5.0 9.0 0.00 0.00 0.00 66 1015.6
20260902224213 71 207 5.0 9.0 0.00 0.00 0.00 64 1015.6
20260902224209 71 198 5.0 9.0 0.00 0.00 0.00 57 1015.5
20260902223816 72 223 5.0 9.0 0.00 0.00 0.00 64 1015.7
20260902222714 72 218 5.0 9.0 0.00 0.00 0.00 65 1015.8
20260902222710 71 190 5.0 9.0 0.00 0.00 0.00 66 1015.7
20260902221709 72 163 5.0 8.0 0.00 0.00 0.00 64 1015.9
20260902221208 72 184 5.0 10.0 0.00 0.00 0.00 62 1015.8
20260902220713 72 205 5.0 9.0 0.00 0.00 0.00 59 1016.0
20260902220709 72 206 5.0 10.0 0.00 0.00 0.00 61 1015.9
20260902215713 72 176 5.0 10.0 0.00 0.00 0.00 55 1016.2
20260902215709 72 160 4.0 9.0 0.00 0.00 0.00 58 1016.0
20260902214709 72 151 5.0 10.0 0.00 0.00 0.00 62 1016.3
20260902214209 72 138 5.0 10.0 0.00 0.00 0.00 62 1016.3
20260902213709 72 175 5.0 10.0 0.00 0.00 0.00 57 1016.4
20260902213314 71 169 5.0 10.0 0.00 0.00 0.00 57 1016.5
20260902213214 71 153 6.0 11.0 0.00 0.00 0.00 50 1016.5
20260902213209 71 156 5.0 10.0 0.00 0.00 0.00 56 1016.4
20260902212821 71 169 5.0 10.0 0.00 0.00 0.00 57 1016.5
20260902211711 71 150 5.0 11.0 0.00 0.00 0.00 52 1016.5
20260902211707 71 149 6.0 11.0 0.00 0.00 0.00 51 1016.4
20260902210815 71 163 6.0 12.0 0.00 0.00 0.00 53 1016.6
20260902210711 71 144 5.0 10.0 0.00 0.00 0.00 52 1016.6
20260902210707 71 142 5.0 11.0 0.00 0.00 0.00 45 1016.5
20260902205723 71 163 6.0 12.0 0.00 0.00 0.00 53 1016.6
20260902205207 71 144 6.0 12.0 0.00 0.00 0.00 52 1016.6
20260902204707 71 138 6.0 12.0 0.00 0.00 0.00 49 1016.6
20260902204207 71 142 7.0 12.0 0.00 0.00 0.00 53 1016.7
20260902203710 71 151 6.0 10.0 0.00 0.00 0.00 51 1016.7
20260902203706 70 157 6.0 11.0 0.00 0.00 0.00 52 1016.7
20260902203217 71 156 6.0 10.0 0.00 0.00 0.00 52 1016.7
20260902202310 69 136 6.0 13.0 0.00 0.00 0.00 60 1016.8
20260902202207 71 155 5.0 11.0 0.00 0.00 0.00 49 1016.8
20260902202203 71 174 5.0 11.0 0.00 0.00 0.00 55 1016.8
20260902200703 69 165 6.0 13.0 0.00 0.00 0.00 61 1016.9
20260902200207 69 142 5.0 9.0 0.00 0.00 0.00 66 1016.9
20260902200203 70 122 6.0 9.0 0.00 0.00 0.00 64 1016.9
20260902195714 69 142 5.0 9.0 0.00 0.00 0.00 66 1016.9
20260902195203 69 133 5.0 8.0 0.00 0.00 0.00 63 1016.9
20260902194703 70 144 5.0 9.0 0.00 0.00 0.00 63 1017.0
20260902194207 69 163 5.0 9.0 0.00 0.00 0.00 69 1017.0
20260902194203 70 161 5.0 9.0 0.00 0.00 0.00 69 1017.0
20260902193201 69 159 5.0 10.0 0.00 0.00 0.00 69 1017.1
20260902192702 69 168 5.0 10.0 0.00 0.00 0.00 69 1017.1
20260902192205 69 182 5.0 8.0 0.00 0.00 0.00 72 1017.1
20260902191702 68 163 5.0 12.0 0.00 0.00 0.00 72 1017.1
20260902191202 68 150 5.0 12.0 0.00 0.00 0.00 70 1017.1